Location: Fishcreek Rd Observing Site
(41.1865°N, 81.4271°W)
Time: 05:47:48
(UTC-04:00)

Iridium 75 - Visible Passes

Search period start: 20 October 2014 00:00
Search period end: 30 October 2014 00:00
Orbit: 776 x 779 km, 86.4° (Epoch: 19 October)

Date Brightness Start Highest point End Pass type
(mag) Time Alt. Az. Time Alt. Az. Time Alt. Az.
20 Oct 8.8 03:50:20 10° NE 03:51:56 14° NE 03:51:56 14° NE visible
20 Oct 7.0 05:29:21 10° N 05:32:17 34° NNW 05:32:17 34° NNW visible
21 Oct 7.9 04:55:46 10° N 04:57:23 20° N 04:57:23 20° N visible
22 Oct 8.7 04:22:30 10° NNE 04:22:52 12° NNE 04:22:52 12° NNE visible
22 Oct 9.2 19:03:49 10° W 19:05:27 11° WNW 19:07:05 10° NW visible
